This demonstration page uses our WeatherBlox Daily Observations layout. Learn more.

Left ArrowRight Arrow

39.92423, -83.80882

Hourly Observations for January 6, 2019

Temp ( °F °C ) Dew Point ( °F °C ) Humidity (%) Winds ( mph kmh ) Pressure ( in mb ) Visibility ( mi km ) Precip ( " mm )
12:56 am 00:56 Clear 41 5 38 3.3 89 89 WSW 13 20 30.04 1017 10 16 N/A
1:56 am 01:56 Clear 41 5 38 3.3 89 89 W 10 17 30.06 1018 10 16 N/A
2:56 am 02:56 Clear 39 3.9 38 3.3 96 96 W 7 11 30.08 1019 10 16 N/A
3:56 am 03:56 Clear 36 2.2 36 2.2 100 100 W 8 13 30.09 1019 10 16 N/A
4:56 am 04:56 Clear 38 3.3 37 2.8 97 97 WNW 9 15 30.10 1019 10 16 N/A
5:56 am 05:56 Clear 36 2.2 36 2.2 100 100 NW 5 7 30.14 1021 8 13 N/A
6:56 am 06:56 Clear with Mist and Fog 35 1.7 35 1.7 100 100 NW 3 6 30.17 1022 3 5 N/A
7:56 am 07:56 Clear with Mist and Fog 33 0.6 33 0.6 100 100 NNW 3 6 30.19 1023 3 4 N/A
7:59 am 07:59 Sunny with Mist and Fog 34 1 34 1 100 100 N 3 6 30.24 1024 1 1 N/A
8:05 am 08:05 Sunny with Fog 34 1 34 1 100 100 NNW 5 7 30.24 1024 0 0 N/A
9:10 am 09:10 Mostly Cloudy with Mist and Fog 34 1 34 1 100 100 NNE 7 11 30.27 1025 1 1 N/A
9:12 am 09:12 Partly Cloudy with Mist and Fog 34 1 34 1 100 100 NNE 7 11 30.27 1025 1 2 N/A
9:17 am 09:17 Partly Cloudy with Mist and Fog 36 2 36 2 100 100 NNE 6 9 30.27 1025 3 5 N/A
9:56 am 09:56 Mostly Sunny 37 2.8 37 2.8 100 100 NE 13 20 30.27 1025 8 13 N/A
10:56 am 10:56 Sunny 40 4.4 36 2.2 86 86 NE 10 17 30.29 1026 10 16 N/A
11:56 am 11:56 Mostly Sunny 42 5.6 37 2.8 82 82 ENE 7 11 30.27 1025 10 16 N/A
12:56 pm 12:56 Mostly Sunny 43 6.1 37 2.8 80 80 ENE 5 7 30.25 1024 10 16 N/A
1:56 pm 13:56 Sunny 44 6.7 37 2.8 76 76 VRB 6 9 30.24 1024 10 16 N/A
2:56 pm 14:56 Sunny 45 7.2 38 3.3 77 77 NE 8 13 30.23 1024 10 16 N/A
3:56 pm 15:56 Sunny 45 7.2 38 3.3 77 77 undefined N/A 30.24 1024 10 16 N/A
4:56 pm 16:56 Sunny 41 5 36 2.2 82 82 E 7 11 30.27 1025 10 16 N/A
5:56 pm 17:56 Clear 36 2.2 34 1.1 93 93 ENE 7 11 30.29 1026 10 16 N/A
6:56 pm 18:56 Clear 37 2.8 34 1.1 89 89 ENE 8 13 30.29 1026 10 16 N/A
7:56 pm 19:56 Clear 38 3.3 34 1.1 86 86 ENE 8 13 30.30 1026 10 16 N/A
8:56 pm 20:56 Mostly Clear 38 3.3 34 1.1 86 86 E 9 15 30.31 1026 10 16 N/A
9:56 pm 21:56 Clear 38 3.3 33 0.6 83 83 E 9 15 30.30 1026 10 16 N/A
10:56 pm 22:56 Clear 38 3.3 33 0.6 83 83 ESE 10 17 30.32 1027 10 16 N/A
11:56 pm 23:56 Clear 37 2.8 31 -0.6 79 79 E 15 24 30.27 1025 10 16 N/A

Powered by AerisWeather